This report requires JavaScript to function properly.
Please use a browser that has JavaScript enabled.

CIF Southern Section Division Finals HS


Saturday, November 19, 2011
       

Meet Info & Blog

Meet Host - This Meet Currently Has No Host Listed
Location - Mt. San Antonio College, Walnut, CA - Map
Mens Races
2.93 Mile Division 48:25 AM
2.93 Mile Division 58:45 AM
2.93 Mile Division 29:25 AM
2.93 Mile Division 110:05 AM
2.93 Mile Division 310:45 AM
Womens Races
2.93 Mile Division 47:45 AM
2.93 Mile Division 58:05 AM
2.93 Mile Division 19:05 AM
2.93 Mile Division 39:45 AM
2.93 Mile Division 210:25 AM
Last Updated 8:39 PM, Sat, Nov 19

  (coaches)



Boys Division 1
==============================================================
Place	Team			Points	Team Time	Spread
==============================================================
1	Arcadia			65	1:16:19		0:52
2	Rancho Cucamonga	111	1:17:20		0:59
3	Great Oak		123	1:17:49		0:30
4	Trabuco Hills		125	1:17:42		0:58
5	El Toro			135	1:17:42		1:03
6	Dana Hills		139	1:18:02		0:39
7	Burbank			197	1:19:03		0:54
8	Vista Murrieta		205	1:18:59		1:16
9	Roosevelt		240	1:19:44		1:55
10	Warren			244	1:19:45		0:43
11	Ventura			278	1:20:27		1:22
12	Poly (Long Beach)	287	1:20:21		0:53
13	Burroughs/Burbank	296	1:20:21		1:36
14	Corona			348	1:21:28		0:39
15	Downey			357	1:21:43		1:22
16	Fountain Valley		364	1:21:58		1:05


Girls Division 1
==============================================================
Place	Team			Points	Team Time	Spread
==============================================================
1	San Clemente		105	1:31:44		0:53
2	Dana Hills		111	1:32:22		0:31
3	Great Oak		123	1:32:21		0:58
4	Vista Murrieta		141	1:31:59		1:57
5	Marina			152	1:32:57		1:47
6	Crescenta Valley	187	1:34:08		1:00
7	Ventura			198	1:33:47		2:29
8	Arcadia			205	1:34:16		1:44
9	Trabuco Hills		220	1:34:46		1:44
10	Corona			229	1:34:19		1:56
11	Edison			258	1:35:27		1:43
12	Poly (Long Beach)	263	1:35:48		0:39
13	Yucaipa			327	1:37:12		1:58
14	Warren			329	1:37:14		0:56
15	Capistrano Valley	334	1:37:19		1:20
16	Valencia (V.)		363	1:38:01		1:39
17	Santiago (Corona)	381	1:38:12		1:13


Boys Division 2
==============================================================
Place	Team			Points	Team Time	Spread
==============================================================
1	Golden Valley		61	1:16:38		1:07
2	Loyola			89	1:17:55		0:36
3	Hart			161	1:19:05		1:02
4	Ayala			162	1:19:22		0:50
5	Mira Costa		181	1:19:40		0:40
6	Adolfo Camarillo	205	1:20:00		0:51
7	Glendora		222	1:20:15		0:48
8	Tesoro			222	1:20:02		1:26
9	Saugus			222	1:20:07		1:13
10	Arroyo Grande		240	1:20:28		1:08
11	Redondo Union		245	1:20:37		0:53
12	Dos Pueblos		248	1:20:29		1:07
13	Valencia (P.)		263	1:20:39		1:04
14	Westlake		275	1:21:00		1:10
15	Esperanza		290	1:21:09		1:28
16	Redlands East Valley	311	1:21:40		1:06


Girls Division 2
==============================================================
Place	Team			Points	Team Time	Spread
==============================================================
1	Simi Valley		60	1:28:25		1:24
2	Saugus			69	1:29:12		1:09
3	Redondo Union		121	1:31:04		1:33
4	Woodbridge		159	1:32:16		2:05
5	Thousand Oaks		193	1:33:30		0:47
6	Tesoro			199	1:33:31		1:18
7	Colony			213	1:33:51		2:10
8	Canyon/Anaheim		220	1:34:27		1:13
9	Mira Costa		233	1:34:04		2:24
10	Sultana			256	1:34:57		1:58
11	Newport Harbor		272	1:35:02		2:36
12	Westlake		276	1:35:32		2:19
13	Foothill		278	1:35:57		0:51
14	Claremont		278	1:36:00		1:23
15	Ayala			288	1:36:09		1:03
16	Canyon/C.C.		320	1:37:08		2:28


Boys Division 3
==============================================================
Place	Team			Points	Team Time	Spread
==============================================================
1	Palos Verdes		89	1:17:13		1:08
2	St. John Bosco		112	1:17:42		1:48
3	West Torrance		139	1:19:28		0:11
4	Brea Olinda		158	1:19:20		0:46
5	Cathedral		165	1:19:14		1:21
6	Damien			181	1:20:02		0:35
7	San Luis Obispo		198	1:19:46		1:27
8	South Pasadena		206	1:20:34		0:40
9	Paso Robles		232	1:20:43		0:59
10	Granite Hills		246	1:20:47		1:40
11	Oak Park		257	1:21:11		1:08
12	San Juan Hills		275	1:21:19		1:26
13	Beverly Hills		289	1:21:56		1:14
14	Corona del Mar		295	1:21:46		1:17
15	Rio Mesa		310	1:21:57		1:54
16	Buena Park		349	1:22:39		1:21


Girls Division 3
==============================================================
Place	Team			Points	Team Time	Spread
==============================================================
1	Palos Verdes		101	1:33:49		2:11
2	Granite Hills		130	1:35:53		1:04
3	San Luis Obispo		154	1:35:36		3:43
4	Santa Margarita		178	1:37:01		1:47
5	Corona del Mar		190	1:36:59		1:58
6	Northwood		192	1:37:29		1:26
7	Bonita			209	1:37:40		1:47
8	Beverly Hills		218	1:36:22		3:14
9	Yorba Linda		225	1:38:22		1:26
10	Laguna Hills		230	1:38:30		1:05
11	Bolsa Grande		241	1:39:29		3:34
12	South Pasadena		244	1:38:29		2:04
13	La Canada		246	1:38:55		1:28
14	Mater Dei		282	1:40:04		1:51
15	South Hills		303	1:40:29		1:17
16	South Torrance		312	1:40:42		2:07


Boys Division 4
==============================================================
Place	Team			Points	Team Time	Spread
==============================================================
1	Salesian		95	1:20:41		0:45
2	Don Bosco		111	1:21:08		0:41	
3	Crespi			131	1:21:15		1:15	
4	Big Bear		139	1:21:16		1:15	
5	Nordhoff		180	1:22:10		1:24	
6	JSerra			181	1:22:25		0:18	
7	Fillmore		185	1:22:30		0:40	
8	Twentynine Palms	232	1:23:21		1:03	
9	Harvard/Westlake	243	1:23:30		1:59	
10	Santa Ynez		246	1:23:36		0:39	
11	Crean Lutheran		255	1:24:22		1:47	
12	San Marino		271	1:24:22		1:52	
13	Notre Dame (S.O.)	279	1:24:20		2:10	
14	Laguna Beach		301	1:24:54		1:16	
15	Maranatha		306	1:25:27		2:34	
16	Whittier Christian	375	1:27:47		1:58	


Girls Division 4
==============================================================
Place	Team			Points	Team Time	Spread
==============================================================
1	JSerra			49	1:33:38		0:34
2	Mayfield		114	1:36:31		0:47
3	Harvard/Westlake	119	1:34:25		3:06
4	El Segundo		162	1:38:00		1:18
5	Laguna Beach		178	1:38:11		2:07
6	Flintridge/Sacred Heart	179	1:38:30		1:55
7	La Reina		197	1:38:50		1:46
8	Notre Dame (S.O.)	224	1:39:55		1:46
9	Bishop Montgomery	225	1:40:20		3:23
10	Paraclete		235	1:40:23		2:10
11	Templeton		244	1:39:56		3:02
12	Oaks Christian		281	1:41:45		0:50
13	Morro Bay		290	1:42:06		1:12
14	San Marino		327	1:43:06		3:02
15	Valley Christian (Cerr)	340	1:43:27		1:00
16	Maranatha		414	1:48:37		3:55


Boys Division 5
==============================================================
Place	Team			Points	Team Time	Spread
==============================================================
1	St. Margarets		45	1:19:01		1:38
2	Chadwick		136	1:23:14		1:19
3	Flintridge Prep		141	1:23:33		0:26
4	Xavier Prep		153	1:23:43		1:25
5	Sage Hill		176	1:24:30		0:45
6	Desert Christian/Lan.	185	1:23:30		2:21
7	St. Joseph (SM)		223	1:25:28		1:35
8	Woodcrest Christian	227	1:25:38		1:15
9	Thacher			229	1:25:24		1:40
10	Orcutt Academy		237	1:25:58		1:25
11	Crossroads		239	1:25:55		1:30
12	Poly (Pasadena)	2	57	1:26:18		1:40
13	Western Christian	306	1:27:54		2:06
14	Acad. Academic Ex.	317	1:27:48		0:49
15	Buckley			340	1:28:28		1:36
16	Viewpoint		349	1:30:29		3:44


Girls Division 5
==============================================================
Place	Team			Points	Team Time	Spread
==============================================================
1	Xavier Prep		65	1:38:35		1:07
2	Thacher			76	1:39:01		1:48
3	Poly (Pasadena)		158	1:43:21		3:08
4	Chadwick		160	1:43:29		2:48
5	Flintridge Prep		173	1:43:23		2:54
6	Desert Christian/Lan.	194	1:45:16		2:11
7	Linfield Christian	205	1:44:51		4:00
8	Vistamar		217	1:45:33		5:18
9	St. Joseph (SM)		219	1:45:43		2:27
10	Sage Hill		230	1:47:15		2:28
11	Village Christian	239	1:47:29		1:12
12	Brentwood		251	1:47:58		1:51
13	Crossroads		255	1:48:01		4:28
14	Cate			286	1:49:12		1:46
15	Pomona Catholic		354	1:51:45		1:40
16	Windward		433	1:57:59		3:57

My Team

Teams

Sort:  Alphabetical  |  By Division 
  • Entries
  • All Results

Mens Results

2.93 Mile Division 4  

to see charts & hypothetical scores
 
 
1.11Daniel De La Torre15:24La Salle
2.12Bryan Hayes15:29Big Bear
3.12Matt Bloch15:29Notre Dame (Sherman ...
4.11Kyle Bueckert15:32Maranatha
5.12Aaron De Toledo15:34Harvard-Westlake
6.11Angel Barranco15:36Salesian
7.12Gustavo Sanchez15:37Nordhoff
8.12Nick Privitelli15:42Crespi
9.12Anthony Allen15:53St. Bonaventure
10.12John Dominguez15:55Don Bosco Tech
11.11Joe Joe Cortez15:57Crespi
12.12Alex Yuter15:59San Marino
13.12Paco Rodriguez16:00Don Bosco Tech
14.9Sean Pino16:02Crean Lutheran
15.11Wyatt Giannini16:05Twentynine Palms
16.12Jose Hernandez16:08Salesian
17.11Bobby Moralez16:08Big Bear
18.11Jose Almaguer16:09Fillmore
19.10Warren Bonilla16:10Crespi
20.11Michael Sciarra16:12Crean Lutheran
21.11Gabriel Castro16:13Don Bosco Tech
22.12Nathan Hennigan16:14Nordhoff
23.12Jeff White16:15Laguna Beach
24.12Evan Johnson16:16Big Bear
25.11Anthony Rivas16:17Fillmore
26.12Jose Perez16:18Salesian
27.11Jonathan Estrada16:18Salesian
28.10Nic Fracassi16:19J Serra Catholic
29.12Mark Mojarro16:21Salesian
30.10David Manahan16:23Harvard-Westlake
31.10Ruben Dominguez16:24Don Bosco Tech
32.11Johnathan Erickson16:25Maranatha
33.10Roberto Bazan16:25Santa Ynez
34.11Robin Allison16:26Nordhoff
35.12Kyle Willis16:27J Serra Catholic
36.12Chris Bates16:29Whittier Christian
37.11Alex MacMiller16:29Crespi
38.12Michael Salzle16:30J Serra Catholic
39.12Alexander Gonzalez16:30Fillmore
40.11Jacob Carey16:31Santa Ynez
41.12Colton Byers16:32Twentynine Palms
42.10Matthew Meredith16:32Notre Dame (Sherman ...
43.12Matt Bowman16:32J Serra Catholic
44.12Anthony Angel16:33Santa Ynez
45.9Angel Escobar16:36Whittier Christian
46.12Adrian Castillo16:36Don Bosco Tech
47.9Anthony Mariconda16:37J Serra Catholic
48.10Andrew Jack16:38San Marino
49.11Justin Avellan16:38Don Bosco Tech
50.9Caleb Webb16:39Big Bear
51.12Sean Robb16:40J Serra Catholic
52.11Zach Beavis16:42Crean Lutheran
53.11Justin Berman16:42Harvard-Westlake
54.11Diante Aiken16:44Twentynine Palms
55.11Dillon Murphy16:44Big Bear
56.11Adrian Mejia16:45Fillmore
57.11Isaac Gomez16:49Fillmore
58.12Robbie Moreton16:51San Marino
59.11Chad Schutze16:52Nordhoff
60.11Jessey Brocar16:52Twentynine Palms
61.12Ed Izaguirre16:53Don Bosco Tech
62.11Mitch Kimball16:53Laguna Beach
63.11Hugo Valdovinos16:53Fillmore
64.12Dillon Murphy16:55Paraclete
65.11Jack Crawford16:57Laguna Beach
66.9Evan Anozie16:57Crespi
67.12Jordan Mendoza16:59Fillmore
68.11Angel Maya17:01Nordhoff
69.11Jon Macaluso17:03Santa Ynez
70.10Yuvan Wickramasinghe17:03San Marino
71.11Edgar Sanchez17:04Salesian
72.12Brandon Bennett17:04Santa Ynez
73.12Robert Blackwell17:06Costa Mesa
74.10Zach Kanlong17:08Twentynine Palms
75.12Joe Mudy17:11Notre Dame (Sherman ...
76.11Elmer Shelevy17:11Downey
77.11Anthony Aries17:12Twentynine Palms
78.12Dakota Rochelle17:13Big Bear
79.12Steven Fields17:14Santa Ynez
80.11Billy Vedrin17:15Morro Bay
81.10Luis Leon17:16Salesian
82.12Ryan Jones17:18Laguna Beach
83.10Larry Zhang17:18Harvard-Westlake
84.10Max Allen17:23J Serra Catholic
85.11Sam Ligon17:25Maranatha
86.11Gabe Calove17:25Crespi
87.11Alex Reilly17:29Notre Dame (Sherman ...
88.12Tyler Nichols17:31Laguna Beach
89.12Judd Liebman17:33Harvard-Westlake
90.11Jack Darcy17:37Crean Lutheran
91.12Riley Adair17:39Notre Dame (Sherman ...
92.11Stone Riff17:40Laguna Beach
93.10David Caballero17:44Big Bear
94.9Brennan Doyle17:48Notre Dame (Sherman ...
95.12Garret Khougaz17:49Nordhoff
96.10Veda Rebollar17:49Laguna Beach
97.12Will Robinson17:49Crean Lutheran
98.10Kenneth Lee17:51San Marino
99.9John Judge17:56San Marino
100.10Josh Spielman17:56Crean Lutheran
101.11Andrew Abeyta17:58Whittier Christian
102.11Miles Schlenker17:59Maranatha
103.9Ben Weissenbach18:03Harvard-Westlake
104.12Skylar Barrett18:06Maranatha
105.10Nick Prendergast18:15Crean Lutheran
106.12Jarrod Keithley18:17Whittier Christian
107.10Kevin Zhang18:20Harvard-Westlake
108.12Robert Reny18:23Maranatha
109.10Brian Ault18:27Whittier Christian
110.11Leo Soriano18:31Nordhoff
111.12Jacob Yates18:41Twentynine Palms
112.10Leonardo Valdez18:44Santa Ynez
113.12Joe Huh18:46Whittier Christian
114.12Billy Anderson18:47Crespi
115.12James Cardero18:58Maranatha
116.12Daniel Covarrubias19:20San Marino
117.11Albert Castillo19:38Whittier Christian
Provided by Athletic.net
2.93 Mile Division 5  

to see charts & hypothetical scores
 
 
1.12Billy Gaudreau15:01St. Margaret’s
2.12Paul Brenneman15:19St. Margaret’s
3.11Toby Qualls15:27Mammoth
4.12Scott Acton15:32Desert Christian (La...
5.11Brandon Price15:49St. Margaret’s
6.12Samuel Cartwright15:53Chadwick
7.12Tommy Paz15:57Xavier College Prep
8.11Michael Caughron15:59Poly (Pasadena)
9.12Hayes Dunn16:00St. Joseph (Santa Ma...
10.12Mason Alford16:02Viewpoint
11.12Brendon Cohen16:04Rolling Hills Prep
12.12Bryan Curtis16:05Desert Christian (La...
13.12Thomas Waters16:07Desert Christian (La...
14.11Isaiah Thompson16:12Sherman Indian
15.10Hunter Edington16:13St. Margaret’s
16.12Brandon Baxter16:20Sierra Canyon
17.11Justin Myles16:20Thacher
18.10Simon Novich16:21Thacher
19.11Michael Smith16:24Bloomington Christian
20.9Juan Valle16:26Chadwick
21.11Nate Debruno16:27Orcutt Academy Charter
22.11Sam Hakim16:28Crossroads
23.12Casey Thompson16:29Flintridge Prep
24.11Josh Mills16:31Western Christian
25.11Dylan Thies16:32Sage Hill
26.11Christian Contreras16:33Woodcrest Christian
27.11Chris Spinney16:34Xavier College Prep
28.10Alan Yoho16:35Flintridge Prep
29.11Evan Hamilton16:35Chadwick
30.10Emery Caster16:37Xavier College Prep
31.11Sebastian Luna16:39St. Margaret’s
32.11Chris Andras16:42Sage Hill
33.11Garrett Corwin16:44St. Margaret’s
34.12Eli Weinstein16:45Flintridge Prep
35.12Jack Percival16:46Sage Hill
36.12Rory Papworth16:47Orcutt Academy Charter
37.11Nick Martin16:48The Buckley
38.12Cody Baird16:48Crossroads
39.12Jake Johnson16:49Flintridge Prep
40.12Andrew Atwong16:49Thacher
41.12Louis Sarkes16:51Viewpoint
42.12James Bradley16:55Flintridge Prep
43.11Brandon Handelsman17:00Crossroads
44.12Jacob Garrett17:01St. Margaret’s
45.12Anthony Carrasco17:01Academy of Academic ...
46.10Eli Malfo17:02St. Joseph (Santa Ma...
47.12Zac Bianco17:02Woodcrest Christian
48.10Joey Holland17:04Woodcrest Christian
49.11Manny Perez17:07Flintridge Prep
50.9Matt Freeman17:08Chadwick
51.11Paul Warburg17:11Woodcrest Christian
52.9Henry Cox17:12Chadwick
53.11Michael Solitaria17:13Xavier College Prep
54.11Ryan Fishel17:13Sage Hill
55.11Brennan Hicks17:17Sage Hill
56.9Nick Murillo17:19Orcutt Academy Charter
57.11Killian Buggy17:22Xavier College Prep
58.10Tyler Fong17:23Flintridge Prep
59.12Andrew Davis17:24The Buckley
60.11Kyle Rodriguez17:25Academy of Academic ...
61.9Ryan Peinado17:25St. Joseph (Santa Ma...
62.10Ryan Dias17:26St. Joseph (Santa Ma...
63.11Christian Mora17:26Western Christian
64.9William Hubsch17:27Poly (Pasadena)
65.12Taylor Heaney17:33Orcutt Academy Charter
66.11Clay Teixeria17:35St. Joseph (Santa Ma...
67.11Tim Goodwin17:36Poly (Pasadena)
68.11Joe Bohlinger17:37Poly (Pasadena)
69.12Thomas Mutch17:38Western Christian
70.10Brad Boboc17:38Chadwick
71.11Ryan Kidman17:39Poly (Pasadena)
72.10Nick Graves17:41Crossroads
73.10Joshua Meister17:42Western Christian
74.10Lev Asimow17:43Poly (Pasadena)
75.11Stuart Adam17:44St. Joseph (Santa Ma...
76.11Robert Chavez17:45Academy of Academic ...
77.11Tucker Higgins17:46The Buckley
78.10Tyler LaSalle17:46Xavier College Prep
79.11Lewis Williams17:47Academy of Academic ...
80.9Austin Dubyak17:48Woodcrest Christian
81.12Patrick Hawkes17:48St. Joseph (Santa Ma...
82.10Jed Phillips17:50Academy of Academic ...
83.9Alexis Michaca17:52Sage Hill
84.10Nick Atilano17:52Orcutt Academy Charter
85.11Andrew Starksen17:53Desert Christian (La...
86.12Ray Biggerstaff17:53Desert Christian (La...
87.9Kevin Griffee17:54Thacher
88.12Justin Hoot17:57Chadwick
89.11E.j. Fortenberry17:58Crossroads
90.11Shravan Rajasekaran18:00Thacher
91.12Ian Bearden18:01Thacher
92.11Daniel Kruth18:04Thacher
93.10Sam Bierman18:06The Buckley
94.11Cris Meza18:10Xavier College Prep
95.12Cameron Rho18:11Poly (Pasadena)
96.12Josh DeVore18:15Desert Christian (La...
97.10Eli Danielson18:19Woodcrest Christian
98.11Jonathan Kuzichev18:20Desert Christian (La...
99.12Michael Vanhal18:24The Buckley
100.9Chase Myers18:30Academy of Academic ...
101.11Cameron Dill18:34Academy of Academic ...
102.11Austin Xiao18:37Western Christian
103.11David Soper18:48Viewpoint
104.9Mitchell Peters18:58Woodcrest Christian
105.10Ian Driscoll19:02Viewpoint
106.12Brandon Wong19:04The Buckley
107.10Roman Lopez19:09Orcutt Academy Charter
108.9Edward Goul19:10Sage Hill
109.9Scott Belinsky19:19Crossroads
110.11Aviv Brawer Cohen19:22Crossroads
111.12Nicholas Frazier19:46Viewpoint
112.10Miles Cortez20:12Western Christian
113.11Cody Brobston20:22Western Christian
114.9Jared Moore20:37Orcutt Academy Charter
115.12Matthew Zidell20:49The Buckley
116.9Justin Chen21:41Viewpoint
117.12Greg Essayan22:13Viewpoint
Provided by Athletic.net
2.93 Mile Division 2  

to see charts & hypothetical scores
 
 
1.12Kristian Martinez14:54Golden Valley
2.11Jose Penaloza14:57Godinez
3.12Juan David Garcia14:59Golden Valley
4.11Omar Caro15:08Norte Vista
5.12Kyler Fisk15:14Tesoro
6.12Sam Peckham15:16Hart
7.12Charlie Marquardt15:18Loyola
8.11Nolan Del Valle15:19Golden Valley
9.12Amar Dholakia15:21Esperanza
10.12Benji Preciado15:21Valencia (Placentia)
11.11Bryan Fernandez15:22Dos Pueblos
12.12Carlos Lopez15:25Golden Valley
13.11Joel Gonzalez 215:26Adolfo Camarillo
14.12Nick Rivera15:26Rowland
15.11Christian Eagon15:27Ayala
16.10Mikey Giguere15:27Westlake
17.11AJ Yarnall15:28Saugus
18.11Austin Goins15:29Canyon (Anaheim)
19.12Austin O'neil15:29Hart
20.12Andrew Bland15:30Loyola
21.10Garrett Corcoran15:32Villa Park
22.12Jared Jones15:34Loyola
23.11Trevor Cowan15:36Arroyo Grande
24.12Ned Trim15:39Loyola
25.12Daniel Tuit15:42Saugus
26.10Mike Duke15:42Glendora
27.12Michael Munoz15:43La Serna
28.11Nick Valenzuela15:43Colony
29.12Travis Taylor15:43Mira Costa
30.12Josh Davis15:45Arroyo Grande
31.12Jharynd Cecil15:46Redlands East Valley
32.12Kenny Tanner15:47Ayala
33.10William Tait15:47Redondo Union
34.12Adam Perez15:48Mira Costa
35.12Zachary Adler15:48Mira Costa
36.11Ryan Sanchez15:50Glendora
37.11Evan Malone-White15:51Redondo Union
38.12Adam Lucero15:52Adolfo Camarillo
39.12Andrew Verdin15:54Loyola
40.11Robert Martinez15:55Ayala
41.12Alfredo Contreras15:56Ayala
42.12Tyler Caracoza15:57Redondo Union
43.11Sammy Newman15:58Mira Costa
44.11Billy Walker15:59Hart
45.12Connor Vigil15:59Redlands East Valley
46.11Maxwell Davis15:59Dos Pueblos
47.11Bryce Torres16:00Tesoro
48.12Thomas French16:00Esperanza
49.11Brendan Tinoco16:01Golden Valley
50.12Austin Mendoza16:01Glendora
51.10Scott Curran16:02Tesoro
52.11Jonathan Corley16:02Arroyo Grande
53.11Josh Sherfey16:03Hart
54.12Aaron Nguyen16:04Golden Valley
55.12Robert Yuwiler16:05Saugus
56.11Baylor Harper16:06Tesoro
57.11William Garcia16:08Valencia (Placentia)
58.12Cole Couchman16:10Adolfo Camarillo
59.12Cody Janson16:11Saugus
60.12Aaron Forburger16:12Glendora
61.10John Greening16:14Dos Pueblos
62.11Zack Gomez16:15Adolfo Camarillo
63.11Rocky Peterson16:16Westlake
64.11Esteban Vega16:17Adolfo Camarillo
65.11Samuel Tran16:17Ayala
66.9Mac Kaufman16:18Hart
67.10Sean O'Bryan16:19Westlake
68.12Chris Howes16:20Redlands East Valley
69.11Chris Harlan16:20Esperanza
70.11Blake Maule16:21Arroyo Grande
71.12Matthew Pope16:21Valencia (Placentia)
72.10Chris Costa16:21Westlake
73.10Aaron Zambrano16:22Loyola
74.11Garrett Klatte16:22Redondo Union
75.10Niko Pappas16:23Mira Costa
76.11Dillon Shambaugh16:24Mira Costa
77.12Gio Ruiz16:24Valencia (Placentia)
78.12Cristian Aviles16:25Valencia (Placentia)
79.10Cole Smith16:25Dos Pueblos
80.12Sean Scofield16:27Hart
81.11Ben York16:29Dos Pueblos
82.11Sean Morse16:29Ayala
83.12Brandon Nelli16:30Glendora
84.9Ruben Rubira16:31Hart
85.12Jacob Keifer16:33Ayala
86.12Gabe Levy16:35Golden Valley
87.9Jeff Kirwin16:36Glendora
88.9Graham Rigby16:37Westlake
89.12Alper Vural16:38Westlake
90.11Josh Lewis16:38Loyola
91.11Ryan Ogan16:39Esperanza
92.10Tyler Bradford16:39Dos Pueblos
93.10Brandon Boval16:40Tesoro
94.10Takehiro Yamaya16:40Redondo Union
95.12Parker Jones16:41Saugus
96.10Arthur Sunga16:42Valencia (Placentia)
97.12Tyler Topping16:43Redlands East Valley
98.11Nate Mash16:44Arroyo Grande
99.10Damon Payne16:45Glendora
100.9Sander Kushen16:47Tesoro
101.11Coleman Helm16:48Saugus
102.11Willle Rodriguez16:48Valencia (Placentia)
103.12Jacob Mayans16:49Esperanza
104.10Trevor Stangle16:50Adolfo Camarillo
105.11Parker Dusick16:52Redlands East Valley
106.12Jake Barber16:57Newport Harbor
107.12Dylan Zukin16:58Dos Pueblos
108.12Ryan Freeman17:00Redlands East Valley
109.10Tomohiro Yamaya17:01Redondo Union
110.12Matt Sommer17:02Esperanza
111.11Austin Fisher17:03Saugus
112.11Ryan Llamas17:07Esperanza
113.11Lucas Giles17:08Adolfo Camarillo
114.12Nick Sommers17:09Westlake
115.12Alex Guzman17:09Redondo Union
116.11Justin MacDonald17:15Mira Costa
117.10Logan Myers17:18Tesoro
118.12David Avila17:41Arroyo Grande
119.12Blair Libby18:24Arroyo Grande
120.12David Narvarez18:38Redlands East Valley
Provided by Athletic.net
2.93 Mile Division 1  

to see charts & hypothetical scores
 
 
1.12Sergio Gonzalez14:51Arcadia
2.12Luis Gutierrez14:53Rancho Cucamonga
3.12Kevin Durham14:56El Toro
4.11Porter Reddish15:01Vista Murrieta
5.12Jared Hazlett15:02Trabuco Hills
6.12Anthony Monroy15:05Burroughs (Burbank)
7.12Aaron Mora15:05Whittier Christian
8.12Bryan Guijarro15:06Knight
9.12Ryan Vargas15:07Arcadia
10.11Richie Soto15:07Marina
11.11Juan Gonzalez15:08El Toro
12.12Nick Woolf15:08E. Roosevelt
13.12Michael Hewitt15:14Great Oak
14.11Mitchell Pratt15:15Arcadia
15.12Malik Hayes15:17Quartz Hill
16.12Ethan Lawrence15:17Dana Hills
17.10Isaiah Amos-Nshimba15:21Burbank
18.11Kevin Ramirez15:22Santa Fe
19.12Jon Dileva15:22Rancho Cucamonga
20.10Estevan De La Rosa15:23Arcadia
21.12Lance Capel15:23Dana Hills
22.11Austin Esposito15:23Rancho Cucamonga
23.11Kyle Medina15:25Ventura
24.12Omar Torres15:27Warren
25.12Kevin Marshall15:28Trabuco Hills
26.11Jeff Thies15:30Edison (HB)
27.12Kevin Chamberlain15:32Great Oak
28.12Edwin Herrera15:32Ventura
29.10Miguel Bautista15:33Poly (Long Beach)
30.11Kyle Warrick15:33E. Roosevelt
31.12Nick Plumb15:35Trabuco Hills
32.11Naoki Omatsu15:37Trabuco Hills
33.11Sergio Fraire15:38Burbank
34.12Eddie Carrillo15:39Great Oak
35.10Gavin Diem15:39Dana Hills
36.11Jack Balder15:40Great Oak
37.12Francis Le15:43Arcadia
38.11Omar Solis15:43Vista Murrieta
39.12Forrest Parkinen15:44El Toro
40.12Brenden Emery15:44Great Oak
41.11Moises Martinez15:45Downey
42.12Aaron Potts15:46E. Roosevelt
43.11Jack Morgenson15:47Dana Hills
44.10Hector Hernandez15:49Canyon Springs
45.11Kevin Matthews15:50Rancho Cucamonga
46.12Edgar Cobian15:51La Sierra
47.12Jay Bonthius15:52Fountain Valley
48.12Calvin Davis15:52Rancho Cucamonga
49.12Jonathan Stoll15:52Burbank
50.11Jeomar Muro15:54Vista Murrieta
51.12Bryce Pierce15:55El Toro
52.12Garrett Williams15:56Corona
53.12Conner Garcia15:56Dana Hills
54.12Tareq Alwafai15:57Aliso Niguel
55.10Arsen Mkrtchyan15:57Burbank
56.12Jazeel Garcia15:58Poly (Long Beach)
57.11Nathan Kwan15:59El Toro
58.11Max Moncur16:00Trabuco Hills
59.11Lucas Dorman16:01Trabuco Hills
60.12Alec Dominguez16:01Warren
61.9Benjermin Gonzalez16:02Warren
62.12Jimmy Gauger16:03Corona
63.12Charlie Shen16:03Arcadia
64.10Garrett Mullennix16:04Vista Murrieta
65.10Jovani Gamboa16:04Poly (Long Beach)
66.12Christian Giammich...16:05Ventura
67.9Jonathan Rodriguez16:05Warren
68.12Kamal Chahal16:05Burroughs (Burbank)
69.12Zach Beimford16:06Burroughs (Burbank)
70.11Andy Wederman16:06Dana Hills
71.11Brendan Mccabe16:07Trabuco Hills
72.10Mat Holton16:09Rancho Cucamonga
73.11Fortino Santana16:10Warren
74.10Anthony Ortega16:11Rancho Cucamonga
75.11Thomas Duckson16:12Fountain Valley
76.12Jaime Barillas16:12Warren
77.11Emmanuel Ramirez16:13Downey
78.9Jeremy Beck16:14E. Roosevelt
79.11Bernie Corea16:15Burbank
80.12James Porter16:16El Toro
81.11John Hernandez16:17Vista Murrieta
82.12Jordan Millington16:18Fountain Valley
83.11Andres Velasco16:19Downey
84.10Faustino Diaz16:19Downey
85.12Anuraj Shah16:19Arcadia
86.12Brandon Messerly16:20Great Oak
87.11Matt Smith16:20Vista Murrieta
88.10Zachary Ponce16:20Poly (Long Beach)
89.11David Aguilar16:21Corona
90.12Brandon Andrade16:24Burroughs (Burbank)
91.10Christian Vazquez16:26Poly (Long Beach)
92.12JACOB JUN16:29Burbank
93.10Eris De La Torre16:30Poly (Long Beach)
94.11Josh Soler16:33Corona
95.12John Spatter16:35Corona
96.11Zeph Alva16:37Dana Hills
97.12Tanner Shelton16:38Ventura
98.11Max Chern16:39Fountain Valley
99.12Charlie Camacho16:41Burroughs (Burbank)
100.11Nathan Velarde16:44Great Oak
101.10Elliot Choe16:45Burbank
102.12Philip Angelo16:47Ventura
103.11Conrad Slater16:48Ventura
104.12Brian Tressler16:50El Toro
105.12Cameron Ford16:56Poly (Long Beach)
106.12Alex Sakamoto16:57Fountain Valley
107.12Eric Mendoza16:59Fountain Valley
108.11Francisco Romo17:00Vista Murrieta
109.12Brenden Prieto17:00Fountain Valley
110.11Glenn Cochran17:01Corona
111.11Michael Bravo17:03E. Roosevelt
112.12Ralph Rivera17:04E. Roosevelt
113.12Ian Roberts17:05Ventura
114.10Adrian Munoz17:07Downey
115.12Alec Villalpando17:14Burroughs (Burbank)
116.11Cory Trujillo17:14Downey
117.12Andrew Mousaw17:15E. Roosevelt
118.12Julian Hernandez17:22Corona
119.12Micheal Guzman17:23Warren
120.11Jose Martinez17:26Downey
121.12Michael Acosta17:47Burroughs (Burbank)
Provided by Athletic.net
2.93 Mile Division 3  

to see charts & hypothetical scores
 
 
1.12Danny Martinez14:36St. John Bosco
2.12Jonah Diaz14:55Palos Verdes
3.11Myles Smith15:01St. John Bosco
4.12Justin Unno15:07Palos Verdes
5.11Ryland Dreibelbis15:07Palos Verdes
6.12Seamus Land15:08San Luis Obispo
7.12Adam Avila15:09Cathedral
8.12Ismael Griego15:10Granite Hills
9.12Geno Arthur15:18Rio Mesa
10.12Cody Nguyen15:26Brea Olinda
11.12Brandon Pugh15:27San Juan Hills
12.12Cesar Solis15:28Cathedral
13.12Zander Souza15:29Paso Robles
14.12Luke Kraemer15:30San Luis Obispo
15.12Elliott Ramirez15:31Brea Olinda
16.11Gilbert Solorza15:32Buena Park
17.10Sahm Bazargan15:35Oak Park
18.12Blake Myers15:37Corona del Mar
19.11Douglas Negrete15:42Damien
20.11Gabriel Marasigan15:45Santa Margarita
21.12Sebastian Cruz15:46St. John Bosco
22.12Andrew Faust15:47West Torrance
23.12Jair Juarez15:48Los Altos
24.12Josh Galen15:49Beverly Hills
25.11Paul Messana15:51South Pasadena
26.12Tom Ebiner15:52Damien
27.11Noah Oliver15:52Granite Hills
28.12Miles Blum15:53West Torrance
29.12Brandon Vientos15:54West Torrance
30.12Alexander Tranquada15:54South Pasadena
31.10Joshua Wilson15:54South Pasadena
32.10Josh Lopez15:55St. John Bosco
33.12Gregory Day15:56West Torrance
34.12Moses Baiden15:56Damien
35.11Patrick Thedinga15:57Oak Park
36.11Teddy Kassa15:58West Torrance
37.10Matthew Ruiz15:59Cathedral
38.12Miles Dawson15:59West Torrance
39.11Michael Nakahara16:01West Torrance
40.12Alec Dunton16:01Palos Verdes
41.10Dillon Nobbs16:02Bonita
42.12Max McBride16:03Brea Olinda
43.12Daniel Rieger16:03Palos Verdes
44.12Tomas Snur16:04Palos Verdes
45.10Spencer Keith16:04Corona del Mar
46.11Joshua Ernst16:04San Luis Obispo
47.12Ricardo Medina16:06San Juan Hills
48.11John Janneck16:08Brea Olinda
49.10Elias Munoz16:08Cathedral
50.11Matthew Kwiatkowski16:09Paso Robles
51.12Jesse Williams16:11Rio Mesa
52.11Jared Daedler16:12Brea Olinda
53.11Aidan Farrell16:12Paso Robles
54.12Xavier Cortez16:13San Juan Hills
55.12Conor Brandt16:15Damien
56.11Eli Flesh16:16Beverly Hills
57.10Mitchell Cameron16:17Damien
58.12Tanner Thomas16:18Granite Hills
59.10Aaron Karlin16:22Beverly Hills
60.11Chris Carlson16:23Oak Park
61.10Kevin Rodriguez16:24St. John Bosco
62.12Max White16:24South Pasadena
63.12Matt Nottenkamper16:25Paso Robles
64.11Chanan Batra16:26Beverly Hills
65.11Noah Yoshida16:28Paso Robles
66.12Riley Pihl16:29San Luis Obispo
67.12Tanner Engelage16:30Brea Olinda
68.12John Reyes16:30Cathedral
69.11James Amondsen16:31Cathedral
70.11William Jones16:31South Pasadena
71.11Ruben Solorza16:32St. John Bosco
72.11Ben Goldstein16:33Oak Park
73.11Teddy Parks16:34Corona del Mar
74.12Connor Soudani16:34Rio Mesa
75.12Cameron Bauer16:35San Luis Obispo
76.9James Lindstrom16:37Granite Hills
77.11Reid Meckler16:37Corona del Mar
78.11Addison Mendez16:38Brea Olinda
79.9Branden Estrada16:38St. John Bosco
80.12Kory Burt16:38San Luis Obispo
81.12Perez Abram16:39Buena Park
82.11Jose Bazurto16:40San Juan Hills
83.11Jose Saucedo16:42Rio Mesa
84.12Tyler Milles16:43Oak Park
85.12David Ramirez16:46Buena Park
86.11Zachary Diaz16:48Palos Verdes
87.11Daniel Ramirez16:49Buena Park
88.11Josh Ingram16:50Granite Hills
89.11Nick Stair16:52Paso Robles
90.11Adam Williams16:52Damien
91.9Cullen Irvine16:52South Pasadena
92.12Alex Terriquez16:53Buena Park
93.10Camerino Herrera16:53San Juan Hills
94.11Greg May16:54Corona del Mar
95.10Ethan Lish16:54Granite Hills
96.9Wallace Jordan16:55Granite Hills
97.12Ryan Zalada16:58Oak Park
98.12Alexander Borish16:59Buena Park
99.10Zachary Young17:02San Juan Hills
100.10Aaron Wolfe17:03Beverly Hills
101.10Jeremy Costello17:05San Luis Obispo
102.11Eric Jones17:05Oak Park
103.11Ian Gomez17:06Cathedral
104.11Tyler Armstrong17:10South Pasadena
105.11Cody Smith17:12Rio Mesa
106.11Fidencio Aguirre17:13Damien
107.11Thomas McKenna17:19Rio Mesa
108.11Tanner Love17:19Corona del Mar
109.12Andrew Graham17:26Rio Mesa
110.12NAU DePAZ17:32San Juan Hills
111.12Andrew Redston17:53Beverly Hills
112.11Alex Rohani17:56Beverly Hills
113.12Jesse Mejia18:16Corona del Mar
114.9Andres Aceves18:21Buena Park
115.11Jonathon Kleinman18:39Paso Robles
Provided by Athletic.net

Womens Results

2.93 Mile Division 4  

to see charts & hypothetical scores
 
 
1.12Camille Chapus17:06Harvard-Westlake
2.12Amy Weissenbach17:45Harvard-Westlake
3.12Kellian Hunt17:53Whittier Christian
4.12Savannah Camacho18:05Templeton
5.12Jessica Meyers18:08Santa Ynez
6.12Katherine Tercek18:15Marlborough
7.12Natasha Strickland18:29Laguna Beach
8.11Colby Lindholm18:31J Serra Catholic
9.12Stephanie Vargas18:32Flintridge Sacred He...
10.9Brooke Kunzelman18:37J Serra Catholic
11.9Ashley Geisler18:39J Serra Catholic
12.10Alissa Barraza18:41San Marino
13.11Danielle Shanahan18:41Bishop Montgomery
14.11Kazia Mermel18:42Notre Dame (Sherman ...
15.11Anna Farello18:43El Segundo
16.10Hannah Hunsaker18:46J Serra Catholic
17.9Ariana Brajkovich18:50La Reina
18.12Coley Mozillo18:55Mayfield
19.10Kylee Fracassi19:05J Serra Catholic
20.10Alyssa Rivas19:11Mayfield
21.11Melanie Fujiwara19:13Paraclete
22.12Leah Vitrano19:13J Serra Catholic
23.10Alyssa Frank19:14La Reina
24.11Madison Grenier19:19Paraclete
25.10Kristin Monson19:20Paraclete
26.11Lauren Joseph19:21Mayfield
27.11Christina Cordano19:22Mayfield
28.9Veronica Russell19:23Templeton
29.9Janie Crawford19:23Laguna Beach
30.11Caitlyn Nilssen19:27J Serra Catholic
31.12Annie Grove19:27Bishop Montgomery
32.10Monica Nimmagadda19:29Harvard-Westlake
33.12Paulina Antaplyan19:35Flintridge Sacred He...
34.11Megan Freiburger19:36El Segundo
35.11Jordan Jeworski19:39La Reina
36.11Jordan Mullins19:40El Segundo
37.10Riley Gilmartin19:40Flintridge Sacred He...
38.11Karina Alvarez19:42Mayfield
39.10Eliza Romero19:43Laguna Beach
40.11McClish Shannon19:46Morro Bay
41.11Elle Wilson19:53Harvard-Westlake
42.12Megan Huning19:54Oaks Christian
43.11Ogle Madeline19:56Morro Bay
44.12Nicole Sroczynski19:59Bishop Montgomery
45.11Macy Vezina20:00El Segundo
46.12Marisa Merchant20:00Laguna Beach
47.12Darcy Brown20:01El Segundo
48.9Emma Fleming20:03Oaks Christian
49.11Hannah Garfin20:06Valley Christian (Ce...
50.10Kylie Prentice20:09Bishop Montgomery
51.11Lily Peterson20:12Notre Dame (Sherman ...
52.11Yasmin Moreno20:12Harvard-Westlake
53.9Amanda Shankwiler20:13Maranatha
54.10Ann Taylor20:14Templeton
55.10Maddie Peterson20:16Flintridge Sacred He...
56.11Mia Gilbert20:16Notre Dame (Sherman ...
57.12Andraea Aksentijevic20:17Notre Dame (Sherman ...
58.10Lizzy Thomas20:23Harvard-Westlake
59.10Annie Peacock20:26Mayfield
60.9Hanna Armendariz20:27Flintridge Sacred He...
61.11Maggie Guinnip20:28Notre Dame (Sherman ...
62.9Sarah Linton20:29San Marino
63.12Carina Hampp20:29Morro Bay
64.11Amy Anderson20:30Oaks Christian
65.11Stephanie Laface20:30Notre Dame (Sherman ...
66.12Kelly Reinke20:31La Reina
67.11Caitlin Yee20:31Harvard-Westlake
68.10Marlina Barnett-Cr...20:32Notre Dame (Sherman ...
69.9Marianne Madias20:34Oaks Christian
70.9Adrianne Young20:35Valley Christian (Ce...
71.10Krista Andressen20:36La Reina
72.9Carlee Ressler20:36Laguna Beach
73.10Alex Beck20:44Oaks Christian
74.9Kendra Peck20:46Valley Christian (Ce...
75.10Kayla Baskevitch20:49Laguna Beach
76.10Hannah Rae Finchamp20:51Maranatha
77.11Bethanie Chin20:51Maranatha
78.12Alyssa Ivins20:54Valley Christian (Ce...
79.12Rachael Jelstrom20:57Morro Bay
80.11Rylie Fee20:58Morro Bay
81.10Veronica Mejia21:02San Marino
82.12Macy Burgeson21:03Morro Bay
83.10Jennifer Bitterly21:04La Reina
84.11Hannah Arnold21:06Valley Christian (Ce...
85.9Dana Alpert21:07Templeton
86.10Kristina Raine21:07Templeton
87.11Ashley Fairbanks21:08Paraclete
88.12Nora Welsh21:09Flintridge Sacred He...
89.12Caitlin Hittner21:11San Marino
90.11Stephanie Demmon21:13Valley Christian (Ce...
91.10Sarah Padlipsky21:21El Segundo
92.10Monica White21:21Laguna Beach
93.12Alex Barragan21:23Paraclete
94.9Kecymar Osuna21:29Templeton
95.12Annie Maguire21:31Flintridge Sacred He...
96.11Marisa Maunu21:35Oaks Christian
97.11Hayley Walke21:39La Reina
98.11Lindsay Snaer21:43San Marino
99.10Savannah Anderson21:52Oaks Christian
100.9Miranda Allen22:01Mayfield
101.9Mackenzie Rush22:01Paraclete
102.12Paulina Costantini22:04Bishop Montgomery
103.11Marina Flores22:05San Marino
104.11Ashly Fisher22:09Morro Bay
105.10Katianna Lee22:11El Segundo
106.9Mackenzie Murphey22:15Paraclete
107.12Sarah Shibley22:17Valley Christian (Ce...
108.9Taylor Mariucci22:21Templeton
109.9Marissa Shen22:22San Marino
110.11Annalise Trujillo22:34Maranatha
111.12Monica Dorsey23:18Bishop Montgomery
112.10Gabby Podegracz23:58Bishop Montgomery
113.10Victoria Chang24:08Maranatha
114.11Ashley Trypucko24:35Maranatha
115.11Grace Jenks25:49Maranatha
Provided by Athletic.net
2.93 Mile Division 5  

to see charts & hypothetical scores
 
 
1.12Alexia Velarde18:04Marywood (Palm Valley)
2.9Jackie Crowther18:29Linfield Christian
3.11Melanie Reimer18:43Thacher
4.12Nicki Maslan18:49Viewpoint
5.10Evan Gancedo18:53Poly (Pasadena)
6.11Liza Currin18:56Vistamar
7.9Jody Meads18:59Mammoth
8.10Valeria Ruiz19:02Xavier College Prep
9.10Sarah Yoho19:03Flintridge Prep
10.11Lauren Ouye19:06Chadwick
11.11Julianna Childs19:10Thacher
12.10Beth Rigali19:23St. Joseph (Santa Ma...
13.11Chanel Monica19:26Xavier College Prep
14.11Bella Hernandez19:32Crossroads
15.10Kate Evans19:35Flintridge Prep
16.12Marissa Jimenez19:37Aquinas
17.11Sophie Currin19:39Vistamar
18.9Lily Zino19:46Vistamar
19.11Marla Bonser19:47Laguna Blanca
20.11Meg Lizza19:50Xavier College Prep
21.12Rachel Frye20:04Mission College Prep...
22.12Emily Kennedy20:06Desert Christian (La...
23.9Julia Dalecio20:08Xavier College Prep
24.12Areanna Suarez20:09Xavier College Prep
25.10Emily Gifford20:16Poly (Pasadena)
26.11Brittany Holden20:16Thacher
27.11Melissa Shadden20:18Chadwick
28.10Isobel Hayne20:21Thacher
29.9Rachel Power20:26Desert Christian (La...
30.11Jasmynn Roman20:31Thacher
31.11Sophia Witte20:34Sage Hill
32.9Sophia Venema20:36Desert Christian (La...
33.10Sonaali Pandiri20:37Crossroads
34.10Alycea Heredia20:44Orcutt Academy Charter
35.10Raina Sprock20:51Sierra Canyon
36.11Brooke Edwards20:52Poly (Pasadena)
37.12Adrian Walsh20:53Cate
38.12Naomi Granados20:57Sage Hill
39.12Jennifer Calfas21:02Chadwick
40.9Brittany Andressoo21:04Sage Hill
41.9Brooke Wonser21:05Village Christian
42.9Masury Lynch21:05Brentwood
43.10Shelby Kim21:06Brentwood
44.11Grace Broyles21:07Flintridge Prep
45.11Kylie Moore21:07Linfield Christian
46.9Geogie Becker21:08Thacher
47.12Katie Courtney21:09Chadwick
48.10Jennifer Mondragon21:12Immanuel Christian
49.11Hutton Becker21:13Thacher
50.12Barbara Boyajian21:14Village Christian
51.11Bridget Adam21:15St. Joseph (Santa Ma...
52.9Kendall Klotz21:16Brentwood
53.11Kelli Liu21:19Poly (Pasadena)
54.12Megan Griffin21:20Linfield Christian
55.9Christine Ausherman21:24Village Christian
56.10Leila Rohde21:26Linfield Christian
57.11Jocelyn Hansson21:27Windward
58.12Charlotte Bowles21:28Cate
59.11Tamar Jusidman21:28Crossroads
60.11Megan Wonser21:29Village Christian
61.11Nicole Jenkins21:30Hesperia Christian
62.10Emily Brandt21:32St. Joseph (Santa Ma...
63.12Talia Weintraub21:35Brentwood
64.10Solana Arellanes21:37Pomona Catholic
65.11Lili Mora21:38Sage Hill
66.10Audrey Levy21:41Flintridge Prep
67.9Kaileen Cruden21:43St. Joseph (Santa Ma...
68.12Denali Tietjen21:45Cate
69.10Brianna Murphy21:50St. Joseph (Santa Ma...
70.12April Cisneros21:51Desert Christian (La...
71.12Shannon Markle21:52Pomona Catholic
72.11Hailey Waller21:54Chadwick
73.9Ashley Lara21:57Flintridge Prep
74.10Maddi Holder22:01Poly (Pasadena)
75.12Valerie Yarema22:10Chadwick
76.9Esmeralda Martinez22:11Pomona Catholic
77.9Sparky Sharer22:12St. Joseph (Santa Ma...
78.12Reni Kiss22:17Village Christian
79.11Makenzie Dick22:17Desert Christian (La...
80.10Megan Murphy22:19St. Joseph (Santa Ma...
81.12Deborah Kim22:24Crossroads
82.9Oonagh McDowell22:25Flintridge Prep
83.12Olivia Hudnut22:26Poly (Pasadena)
84.10Jasmin Paz22:27Cate
85.10Hannah Kelley22:29Linfield Christian
86.10Luisa Ilvento22:39Cate
87.11Monica Aguilar22:42Desert Christian (La...
88.12Madison Lacy22:43Linfield Christian
89.12Katelyn Jung22:43Desert Christian (La...
90.10Kayla Perez22:45Xavier College Prep
91.12Xyliana Casas22:48Pomona Catholic
92.11Marisa Wang22:50Flintridge Prep
93.9Diana Matthiessen22:51Poly (Pasadena)
94.9Randee Perea22:52Xavier College Prep
95.10Ari Lewis22:54Windward
96.10Mackenzie Carlson22:56Brentwood
97.10Maddie Cane22:58Vistamar
98.11Caroline Grant23:02Sage Hill
99.11Jessie Lord23:10Brentwood
100.10Sonya Mital23:12Sage Hill
101.12Sophia Herzlinger23:16Sage Hill
102.12Dominique Lassen23:17Pomona Catholic
103.9Kaigan Lowera23:32Village Christian
104.12Katie De La Torre23:40Pomona Catholic
105.10Megan Calfas23:56Chadwick
106.10Shayna Elian24:00Crossroads
107.12Alison Slemaker24:05Windward
108.12Anna Atkeson24:09Windward
109.10Ashley Jimenez24:14Vistamar
110.12Maire Mahony24:32Pomona Catholic
111.12Shea Robinson24:34Brentwood
112.11Greer Hall24:46Linfield Christian
113.11Meghan Killea24:55Cate
114.9Lindsay Borman25:06Crossroads
115.9Alexis Rowley25:24Windward
116.9Jessie Bruce25:35Windward
117.11Jammie Hobson25:54Windward
118.12Gabe Gueten26:09Vistamar
119.12Stephany Subdiaz26:31Crossroads
120.10Francesca Villa26:37Vistamar
Provided by Athletic.net
2.93 Mile Division 1  

to see charts & hypothetical scores
 
 
1.12Erika Reddish17:12Vista Murrieta
2.12Adriana Olivas17:25Centennial (Corona)
3.11Hannah Kirkegaard17:34Ventura
4.10Alicia Williams17:43Corona
5.12Danica Wyson17:48Aliso Niguel
6.12Laura Hollander17:49Marina
7.12Venus Shabgahi17:50Corona
8.10Roni Yamane17:53Arcadia
9.12Pauline Mandel17:53Great Oak
10.11Haley Seward17:56Edison (HB)
11.11Sarah Benson17:58Vista Murrieta
12.10Melissa Eisele18:00San Clemente
13.12Molly Mann18:06San Clemente
14.12Cassandra Smith18:09Trabuco Hills
15.10Angela Ziff18:10Temecula Valley
16.11Paige Canterbury18:13Dana Hills
17.11Miranda Kewley18:14Great Oak
18.11Kylie Nishisaka18:14Marina
19.9Kelsey Carroll18:15San Clemente
20.11Aubrey Carr18:17Dana Hills
21.10Rebecca Guadiana18:22Ventura
22.10Tori Dutchover18:24Yucaipa
23.9Molly Rinefort18:27Dana Hills
24.10Dominique Regalado18:29Trabuco Hills
25.12Ali Johnson18:29Crescenta Valley
26.9Grace Georgi18:30San Clemente
27.12Emily Taylor18:31Marina
28.10Paige Shelton18:32Ventura
29.9Grace Schafer18:36Capistrano Valley
30.9Maiya Larsen18:37Great Oak
31.11Cali King18:38Crescenta Valley
32.9Megan Melnyk18:41Crescenta Valley
33.12Megan Geyer18:41Dana Hills
34.12Kayla White18:44Dana Hills
35.12Sheridan Gomez18:45Dana Hills
36.11Alexis Messerly18:46Great Oak
37.11Glindyll Mancia18:47Arcadia
38.10Eileen Stressling18:47Marina
39.12Maria Hurtado18:47Vista Murrieta
40.12Alejandra Quintero18:48Arcadia
41.9MaCayla Thompson18:48Santiago (Corona)
42.10Sarah Morgan-Owen18:50Poly (Long Beach)
43.12Mellissa Quintero18:50Warren
44.10Jessica Gonzales18:51Poly (Long Beach)
45.11Kim Mcnamee18:51Great Oak
46.11Raelyn Werley18:51Martin Luther King
47.10Erika Johnson18:51Crescenta Valley
48.11Brooke Evans18:53Vista Murrieta
49.12Sierra Wallen18:53San Clemente
50.11Madi Dignadice18:54Valencia (Valencia)
51.12Carly Bauer18:54Great Oak
52.10Zara Flores19:01Dana Hills
53.12Melanie Driessen19:04Trabuco Hills
54.10Jessica Aguilar19:09Yucaipa
55.11Bethany Balady19:09Vista Murrieta
56.12Kora Johnson19:11Trabuco Hills
57.12Naomi Wilcox19:11Arcadia
58.12Fatima Sorto19:11Poly (Long Beach)
59.9Justine Jackson19:12Yucaipa
60.10Gabrielle Yatauro19:16Edison (HB)
61.10Megan Kearney19:16Ventura
62.12Lauren Grego19:16Edison (HB)
63.9Amelia Pear19:17Valencia (Valencia)
64.9Mackenzie Queenenv...19:20Edison (HB)
65.12Lindsey Garcia19:22Valencia (Valencia)
66.11Lali Avila19:26Warren
67.10Georgia Caplen19:27Poly (Long Beach)
68.10Yajaira Zarate19:27Warren
69.12Brooke Moultrie19:29Crescenta Valley
70.9Marissa McCullough19:29Poly (Long Beach)
71.12Halee Michel19:29Capistrano Valley
72.10Natalie Herberg19:31Capistrano Valley
73.10Jacqueline Aparicio19:31Santiago (Corona)
74.11Elizabeth Hays19:32San Clemente
75.12Haley Brzycki19:32Corona
76.11Hannah Ruby19:34Crescenta Valley
77.11Bailee Henry19:35El Rancho
78.12Amber Withrow19:35Corona
79.10Brianna Shaffner19:36Marina
80.10Meghan Kamae19:37Arcadia
81.11Vanessa Lopez19:37Highland
82.11Annie Weiss19:39Edison (HB)
83.12Suzanna Aguilar19:39Corona
84.11Alayna Kos19:40Edison (HB)
85.9Hayley Witzeman19:44Crescenta Valley
86.12Marisa Boren19:45Corona
87.12Jaspreet Chahaun19:45Warren
88.11Tiffany Hernandez19:46Warren
89.9Sydney Muller19:47Capistrano Valley
90.9Alexis Santhanam19:47Vista Murrieta
91.11Katie O'Connor19:51Marina
92.10Rachel Wilson19:53Trabuco Hills
93.9Makenna Nelson19:54Santiago (Corona)
94.11Alice Yang19:55Arcadia
95.11Olivia Pear19:55Valencia (Valencia)
96.9Mikaela Mulhall19:56Capistrano Valley
97.12Montana Moore19:56Marina
98.10Lily Seynaeve19:58Santiago (Corona)
99.12Makenna McGrann19:58Trabuco Hills
100.10Megan Perry19:59Capistrano Valley
101.12Victoria Vollmer20:01Santiago (Corona)
102.11Emily Hooke20:03Ventura
103.12Alexi Tolosa20:03Ventura
104.10Kalin Tomlinson20:05Yucaipa
105.11Janie Weiss20:08Edison (HB)
106.10Megan Huebner20:08La Quinta (La Quinta)
107.10Aliyah Facio20:09Warren
108.12Joyce Liao20:12Arcadia
109.9McKennah Genovese20:17Santiago (Corona)
110.12Sarah Rodriguez20:19Santiago (Corona)
111.12Monique Gilstrap20:22Poly (Long Beach)
112.11Anahi Soriano20:22Yucaipa
113.11Mari Hercher20:28Poly (Long Beach)
114.12Brooke Kather20:28Trabuco Hills
115.10Lexi Whitman20:33Valencia (Valencia)
116.11Jenny Veyna20:35Ventura
117.12Keri Reeves20:37Yucaipa
118.11Summer Wallen20:40San Clemente
119.10Silvia Gonzalez20:40Warren
120.12Ashley Winther20:44Capistrano Valley
121.10Carly Lee20:46Corona
122.12Brooklyn Beeler20:58Valencia (Valencia)
123.10Ashley Helbig21:00Great Oak
124.10Bailey Smith21:37Yucaipa
125.9Gabrielle Zacky21:50Valencia (Valencia)
Provided by Athletic.net
2.93 Mile Division 3  

to see charts & hypothetical scores
 
 
1.12Rebecca Mehra17:23Palos Verdes
2.11Sydney Segal17:28Beverly Hills
3.12Christine Hoffmann17:33San Luis Obispo
4.12Brianna Simmons17:58Beverly Hills
5.12Ashlee Powers18:17Corona del Mar
6.12Sarah Porter18:24Santa Margarita
7.10Helena Van Loan18:24South Pasadena
8.9Jeanette Zambrano18:31Bolsa Grande
9.9Cassidy Webber18:34Palos Verdes
10.10Katie Deimling18:37Granite Hills
11.10Bethan Knights18:39Northwood
12.11Micayla Rennick18:40San Luis Obispo
13.9Emily Hubert18:41Bishop Amat
14.12Kristen Rivera18:42Corona del Mar
15.10Skylar Thiel18:46Palos Verdes
16.9Kailyn Scott18:48Bonita
17.11Marissa Scott18:52Bonita
18.12Francesca Vaccaro18:53Yorba Linda
19.11Olivia Carmo18:55San Luis Obispo
20.12Erica De Biasio18:57South Torrance
21.11Sonja Cwik19:01La Canada
22.11Chelsea Bennis19:07Granite Hills
23.12Grace McManus19:11Granite Hills
24.11Sarah Digiovanni19:11Mater Dei
25.11Leah Rife-Dupuy19:12San Luis Obispo
26.10Ashlyn Rambo19:13Mater Dei
27.11Sydney Zamora19:14South Torrance
28.9Samantha Serna19:14Yorba Linda
29.12Quetzalin Tepayotl19:14Bolsa Grande
30.10Yamileth Muniz19:15Laguna Hills
31.9Marissa Bartello19:17Laguna Hills
32.9Larissa Morse19:17Granite Hills
33.9Erica Munson19:21Santa Margarita
34.10Fernanda Rodriguez19:25Rubidoux
35.12Raeanna Cortez19:26Bolsa Grande
36.12Alexandra Borunda19:27South Hills
37.11Marisa Purcell19:28Northwood
38.12Rachel Roesgen19:29Santa Margarita
39.11Alana Jones19:29Laguna Hills
40.11Kylie Butler19:32Palos Verdes
41.10Sierra Ponthier19:34Palos Verdes
42.11Caylie Connelly19:36Santa Margarita
43.10Ellen Naruse19:36Corona del Mar
44.9Colleen Mispagel19:38La Canada
45.11Lee Lazar19:38Northwood
46.9Natsuki Eguchi19:39Northwood
47.10Anna Frederich19:40La Canada
48.12Sara Williams19:41Granite Hills
49.10Diana Garcia19:41Bonita
50.12Ashley Bootesaz19:42Beverly Hills
51.9Jordin Prado19:44Bonita
52.9Alexa Zamora19:44Granite Hills
53.11Anika Renken19:45South Pasadena
54.12Kaylee Anderson19:49South Pasadena
55.9Danielle Murrietta19:51South Hills
56.11Anna Torrence19:54Yorba Linda
57.11Lauren Gagnon19:58Palos Verdes
58.11Emely Portillo20:00Tustin
59.11Amanda Stevens20:02Yorba Linda
60.12Cece Zhu20:03South Pasadena
61.11Carly Sargent20:04South Hills
62.12Natalie Eulogio20:05Northwood
63.12Meghan Fuelling20:07La Canada
64.12Morgan Lacey20:08Granite Hills
65.9Haley Aufill20:09Laguna Hills
66.11Shelby Perez20:09Corona del Mar
67.11Aitana Zermeno20:11Santa Margarita
68.9Megan Bartyczak20:12Mater Dei
69.11Kristie Son20:13Bolsa Grande
70.12Alexandria Adams20:14Northwood
71.9Kirsten Hansen20:15Corona del Mar
72.11Michelle Kagei20:18Palos Verdes
73.10Miranda Stiver20:19Corona del Mar
74.11Kayla Darnbrough20:19Yorba Linda
75.10Carline Hua20:20Laguna Hills
76.12Sureshni Surendran...20:23South Hills
77.9Brianna Bartello20:24Laguna Hills
78.9Kelly Peabody20:26Mater Dei
79.10Brooke Pigneri20:27Santa Margarita
80.10Remeny White20:28South Pasadena
81.12Darcie Marshall20:28Corona del Mar
82.11Hannah Yoho20:29La Canada
83.9Amanda Christovich20:32Beverly Hills
84.11Elisa Carlson20:34South Torrance
85.11Alexandria Jackson20:35Bonita
86.10Mackenzie Landa20:38Bonita
87.11Lily Ting20:42Beverly Hills
88.12Kristen Solorza20:44South Hills
89.11Sydney Russell20:45Bonita
90.11Michell Dominguez20:47La Canada
91.11Karisa Hirahara20:48Yorba Linda
92.10Jade Carmona20:50South Hills
93.12Elena Lopez20:52Laguna Hills
94.12Caylin Ofsanko20:53South Torrance
95.12Laura Lussier20:56South Pasadena
96.10Anjali Dixit20:58Northwood
97.12Natalie Wilson21:02Mater Dei
98.11Kailee Takashima21:04South Torrance
99.11Erica Moran21:13South Torrance
100.12Madeleine LaVack21:16San Luis Obispo
101.11Marissa Rothman21:18Beverly Hills
102.10Eloise Dimase-Nord...21:21La Canada
103.11Sarah Zerga21:27South Torrance
104.11Kerri Ewing21:29Mater Dei
105.10Ana Tapia21:34Yorba Linda
106.11Ashley Graves21:41Santa Margarita
107.11Karaline Bridgeford21:51San Luis Obispo
108.9Shelby Hightower22:01South Hills
109.11Amy Gonzalez22:05Bolsa Grande
110.11Emma Phillips22:12San Luis Obispo
111.12Kaitlyn Herrin22:23Citrus Valley
112.11Jessica Hitchcock22:29South Pasadena
113.10Da Eun Lee22:31Beverly Hills
114.10Erin Trotter22:53Mater Dei
Provided by Athletic.net
2.93 Mile Division 2  

to see charts & hypothetical scores
 
 
1.10Sarah Baxter16:44Simi Valley
2.12Karis Frankian17:06Saugus
3.11Paige Tennison17:15Newport Harbor
4.12Kelli Sugimoto17:25Mira Costa
5.10Melissa Fairchild17:30Serrano
6.12Xochitl Navarrete17:31Colony
7.12Molly Babcock17:32Woodbridge
8.12Jenay Jauregui17:33Saugus
9.12Mariel Mendoza17:33John W. North
10.12Karla Vernola17:38Simi Valley
11.10Adeline Zerrenner17:41Dos Pueblos
12.11Kayla Ferron17:43Redondo Union
13.12Hannah Munyan17:49Sultana
14.12Rachel Bush17:49Redondo Union
15.12Nicole Evans17:50Woodbridge
16.9Jenny Giguere17:50Westlake
17.12Erika Barr17:50Simi Valley
18.11Cara Ulizio17:51Redondo Union
19.11Emily Scharmann17:56Tesoro
20.12Jordan McCall18:03Saugus
21.9Sarah Riggs18:05Simi Valley
22.9Monika Gyalay18:06Moorpark
23.11Rachel Vinas18:08Simi Valley
24.12Melanie Joerger18:10Thousand Oaks
25.12Hannah Bell18:14Esperanza
26.11Heidi Hoslet18:15Saugus
27.11Katie Huntington18:15Saugus
28.12Jenna Tong18:18Mira Costa
29.11Valerie Mares18:23Colony
30.10Merin Arft18:24Claremont
31.12Lyndsey Mull18:25Redondo Union
32.11Olivia Goins18:26Canyon (Anaheim)
33.10Abigail Frankian18:26Saugus
34.11Chelsey Totten18:27Golden Valley
35.9Julia Van Marter18:28Canyon (Anaheim)
36.11Madison Hills18:28Canyon (Canyon Count...
37.11Ashley Elliott18:31Tesoro
38.11Alyssa Cerminara-G...18:31Woodbridge
39.9Kaylee Upham18:33Sultana
40.11Valeria Soto18:35Canyon (Canyon Count...
41.12Caitlin Turner18:37Thousand Oaks
42.10Megan Renken18:39Claremont
43.12Chandler Colquitt18:40Ayala
44.12Nicki Ghazarian18:41Westlake
45.11Riana Goins18:45Canyon (Anaheim)
46.12Annie Chan18:46Woodbridge
47.9Desirae Jones18:47Simi Valley
48.11Stephanie Lapidus18:48Tesoro
49.10Alison Mattias18:49Foothill (Santa Ana)
50.11Maya Desai18:49University Irvine
51.10Jessica Cushing-mu...18:50Foothill (Santa Ana)
52.12Ashton Padberg18:53Thousand Oaks
53.12Kalin Padberg18:53Thousand Oaks
54.11Genevieve Johnson18:57Thousand Oaks
55.11Xeomara Villalobos18:59Colony
56.12Taylor Khan19:00Ayala
57.9Moriah Munyan19:02Sultana
58.11Sarah Parsons19:02Tesoro
59.11Maggie Goodson19:05Newport Harbor
60.11Audrey Wilcox19:08Foothill (Santa Ana)
61.10Olivia Chaplinski19:09Canyon (Anaheim)
62.10Leah Van Dyke19:09Newport Harbor
63.9Clarice Douille19:10Westlake
64.9Kylie Eagon19:11Ayala
65.11Sara Locke-Henderson19:12Mira Costa
66.10Erica Liem19:14Tesoro
67.11Alexis Thibodeau19:16Redondo Union
68.10Katrina Fix19:17Colony
69.10Kori Groenveld19:18Thousand Oaks
70.10Shalyn Mabritto19:19Canyon (Canyon Count...
71.12Vivien Cherrette19:20Mira Costa
72.9Hannah Stemper19:30Foothill (Santa Ana)
73.11Bailey Sanin19:34Claremont
74.12Christina Russell19:35Ayala
75.11Allison Spivack19:36Claremont
76.10Maddie Bradford19:37Woodbridge
77.10Madelyn Vorgitch19:37Simi Valley
78.9Paige Vitolo19:39Canyon (Anaheim)
79.12Emily McCarty19:39Saugus
80.11Cori Stemper19:40Foothill (Santa Ana)
81.11Jacquie Adams19:41Foothill (Santa Ana)
82.9Catie Rendon19:41Colony
83.10Ashley Ima19:42Newport Harbor
84.10Kelly Colwell19:42Westlake
85.11Allison Santos19:43Ayala
86.9Candace Batsford19:44Ayala
87.10Kylee Webster19:45Tesoro
88.12Vanessa Mendoza19:46Sultana
89.12Emily Harrison19:47Sultana
90.9Julia Cantrell19:47Claremont
91.10Abby Hong19:49Mira Costa
92.10Shelby Dunn19:50Canyon (Canyon Count...
93.10Katelyn Mead19:51Newport Harbor
94.11Kathryn Maddox19:56Newport Harbor
95.11Ana-Paola Laveaga19:58Woodbridge
96.12Jaclyn Gonzalez19:59Ayala
97.10Rebecca Villaran20:00Canyon (Anaheim)
98.9Marissa Borrego20:03Canyon (Anaheim)
99.9Katrina Jenkins20:09Westlake
100.12Danielle Hepperle20:10Claremont
101.11Alexis Abad20:10Woodbridge
102.12Deanna McNurlan20:11Westlake
103.11Kelsey Hicks20:12Tesoro
104.10Kellie Jeong20:14Mira Costa
105.12Makenna Owen20:17Newport Harbor
106.12Anique Villegas20:17Redondo Union
107.9Marisa Uribe20:18Colony
108.11Danha Hernandez20:23Claremont
109.11Lauren Inouye20:26Mira Costa
110.10Destiny Coria20:27Colony
111.11Alyssa Brown20:29Sultana
112.11Jessica Selby20:41Foothill (Santa Ana)
113.11Rachel Smiley20:48Thousand Oaks
114.10Siena Hsu20:50Redondo Union
115.12Caitlyn Selve20:56Canyon (Canyon Count...
116.12Cassie Bird20:59Sultana
117.11Guadalupe Ruiz21:19Canyon (Canyon Count...
118.11Alicia Williamson21:26Westlake
119.10Natalie Rodriguez21:57Canyon (Canyon Count...
Provided by Athletic.net

Photos

Learn about Exciting
New Features!


Read Press Release

New Charts & Hypothetical Scores are only available to meets hosted by Site Supporter Teams

Other meets at this location

Top 10 lists for athletes in this meet

High School

  
Title
Summary
      
Last Updated ,

  (coaches)

Meet Hosts who are Site Supporters can post information here about their meet.


Login to edit the meet blog if you are the meet host.

Team Coaches who are Site Supporters can post information here for their team regarding this meet.


Login to edit the team notes if you are a coach with this team.


Sign up for a free coach's account if you are a coach with

Team coaches can add this meet to their calendar


Login to add this meet to your calendar.


Sign up for a free coach's account to add this meet to your team's calendar.

Team Coaches can register their athletes, allowing meet hosts to simply download all entries.


Login to register your athletes in this meet.


Sign up for a free coach's account to register your athletes in this meet.

Coaches can upload complete results for all teams in a meet through an automated process, or manually enter just their team's results.


Login to add results to this meet.


Sign up for a free coach's account to add results to this meet.

Coaches who are Site Supporters can upload photos and tag them with athlete names.


Login to add your photos.


Sign up for a free coach's account to add your photos.

There is currently no team designated as the Host of this meet.

Contact the meet host and have them designate themselves as the meet host.

You can now highlight Season Records & Personal Records

When highlighted, Season Records will be Bold,
while Personal Records will be Red.

Would you like to highlight these records now?
 

To change this setting at any time, click 'Highlight Records' under What to Show?.

Chart Options

  
Get your free Coach Account

Only coaches need an account to manage their team and register for meets. Everyone else can browse the stats without an account.


Are you a coach? Sign Up and start saving time.

All coach accounts are completely free.
Site Supporters gain extra features, such as team photos and advanced meet hosting features.